• In Schweiz
  • Länderverzeichnis
  • Für 7 Tage
  • Wassertemperatur
  • Satellitenkarten
  • Wetterkarte
  • Widgets
  • user-avatar
    Anmelden

    Stündliche Wetter Sarnen

    Heute, 24 November, Freitag

    Zeit Temperatur Niederschläge Wind Luftdruck Luftfeuchtigkeit
    00:00 +7°C° 0 mm 2 m/S 717 mmHg 73%
    01:00 +8°C° 0 mm 3 m/S 717 mmHg 70%
    02:00 +8°C° 0 mm 2 m/S 717 mmHg 72%
    03:00 +7°C° 0 mm 2 m/S 717 mmHg 74%
    04:00 +7°C° 0 mm 2 m/S 717 mmHg 76%
    05:00 +6°C° 0 mm 2 m/S 717 mmHg 77%
    06:00 +6°C° 0 mm 2 m/S 717 mmHg 77%
    07:00 +6°C° 0 mm 2 m/S 717 mmHg 76%
    08:00 +7°C° 0 mm 2 m/S 717 mmHg 75%
    09:00 +9°C° 0 mm 2 m/S 717 mmHg 74%
    10:00 +10°C° 0 mm 2 m/S 717 mmHg 73%
    11:00 +12°C° 0 mm 2 m/S 717 mmHg 72%
    12:00 +13°C° 0 mm 2 m/S 716 mmHg 72%
    13:00 +14°C° 0 mm 2 m/S 716 mmHg 71%
    14:00 +13°C° 0 mm 2 m/S 716 mmHg 74%
    15:00 +12°C° 0 mm 1 m/S 716 mmHg 78%
    16:00 +12°C° 0 mm 1 m/S 716 mmHg 81%
    17:00 +11°C° 0 mm 1 m/S 716 mmHg 83%
    18:00 +10°C° 0 mm 1 m/S 716 mmHg 84%
    19:00 +8°C° 0 mm 2 m/S 716 mmHg 85%
    20:00 +8°C° 0 mm 2 m/S 716 mmHg 85%
    21:00 +8°C° 0 mm 2 m/S 716 mmHg 85%
    22:00 +8°C° 0 mm 2 m/S 716 mmHg 85%
    23:00 +8°C° 0 mm 2 m/S 715 mmHg 85%

    Morgen, 25 November, Samstag

    Zeit Temperatur Niederschläge Wind Luftdruck Luftfeuchtigkeit
    00:00 +7°C° 0 mm 2 m/S 715 mmHg 84%
    01:00 +7°C° 0 mm 2 m/S 715 mmHg 84%
    02:00 +7°C° 0 mm 2 m/S 714 mmHg 83%
    03:00 +7°C° 0 mm 3 m/S 713 mmHg 83%
    04:00 +7°C° 0 mm 3 m/S 712 mmHg 82%
    05:00 +7°C° 0,1 mm 3 m/S 712 mmHg 83%
    06:00 +7°C° 0,1 mm 3 m/S 712 mmHg 83%
    07:00 +7°C° 0,1 mm 3 m/S 711 mmHg 84%
    08:00 +7°C° 1,8 mm 3 m/S 712 mmHg 88%
    09:00 +7°C° 1,8 mm 3 m/S 712 mmHg 91%
    10:00 +7°C° 1,8 mm 3 m/S 712 mmHg 95%
    11:00 +8°C° 1,4 mm 3 m/S 713 mmHg 93%
    12:00 +8°C° 1,4 mm 3 m/S 713 mmHg 92%
    13:00 +7°C° 1,4 mm 4 m/S 713 mmHg 90%
    14:00 +7°C° 0,2 mm 3 m/S 714 mmHg 89%
    15:00 +7°C° 0,2 mm 3 m/S 714 mmHg 89%
    16:00 +5°C° 0,2 mm 3 m/S 714 mmHg 88%
    17:00 +5°C° 0,1 mm 3 m/S 714 mmHg 89%
    18:00 +5°C° 0,1 mm 2 m/S 715 mmHg 91%
    19:00 +4°C° 0,1 mm 2 m/S 715 mmHg 92%
    20:00 +4°C° 0,3 mm 2 m/S 716 mmHg 92%
    21:00 +4°C° 0,3 mm 2 m/S 716 mmHg 93%
    22:00 +3°C° 0,3 mm 3 m/S 716 mmHg 93%
    23:00 +2°C° 0,5 mm 3 m/S 717 mmHg 93%

    übermorgen, 26 November, Sonntag

    Zeit Temperatur Niederschläge Wind Luftdruck Luftfeuchtigkeit
    00:00 +2°C° 0,5 mm 3 m/S 717 mmHg 93%
    01:00 +2°C° 0,5 mm 3 m/S 718 mmHg 94%
    02:00 +1°C° 0,7 mm 3 m/S 718 mmHg 94%
    03:00 +1°C° 0,7 mm 3 m/S 718 mmHg 93%
    04:00 0°C° 0,7 mm 3 m/S 719 mmHg 93%
    05:00 -1°C° 0,1 mm 3 m/S 719 mmHg 93%
    06:00 -2°C° 0,1 mm 3 m/S 720 mmHg 94%
    07:00 -3°C° 0,1 mm 2 m/S 720 mmHg 94%
    08:00 -2°C° 0 mm 2 m/S 721 mmHg 90%
    09:00 -2°C° 0 mm 2 m/S 722 mmHg 87%
    10:00 -2°C° 0 mm 2 m/S 722 mmHg 83%
    11:00 -1°C° 0 mm 2 m/S 722 mmHg 79%
    12:00 +1°C° 0 mm 2 m/S 722 mmHg 76%
    13:00 +1°C° 0 mm 3 m/S 722 mmHg 72%
    14:00 +1°C° 0 mm 2 m/S 722 mmHg 75%
    15:00 -1°C° 0 mm 2 m/S 722 mmHg 79%
    16:00 -1°C° 0 mm 2 m/S 723 mmHg 83%
    17:00 -2°C° 0 mm 2 m/S 723 mmHg 84%
    18:00 -3°C° 0 mm 2 m/S 724 mmHg 85%
    19:00 -4°C° 0 mm 2 m/S 724 mmHg 87%
    20:00 -4°C° 0 mm 2 m/S 724 mmHg 86%
    21:00 -4°C° 0 mm 2 m/S 725 mmHg 86%
    22:00 -4°C° 0 mm 2 m/S 725 mmHg 85%
    23:00 -4°C° 0 mm 2 m/S 725 mmHg 85%

    27 November, Montag

    Zeit Temperatur Niederschläge Wind Luftdruck Luftfeuchtigkeit
    00:00 -5°C° 0 mm 2 m/S 725 mmHg 86%
    01:00 -5°C° 0 mm 2 m/S 725 mmHg 86%
    02:00 -5°C° 0 mm 2 m/S 725 mmHg 86%
    03:00 -5°C° 0 mm 2 m/S 725 mmHg 86%
    04:00 -5°C° 0 mm 2 m/S 725 mmHg 86%
    05:00 -5°C° 0 mm 2 m/S 725 mmHg 86%
    06:00 -5°C° 0 mm 2 m/S 725 mmHg 85%
    07:00 -6°C° 0 mm 2 m/S 725 mmHg 85%
    08:00 -4°C° 0 mm 2 m/S 725 mmHg 81%
    09:00 0°C° 0 mm 1 m/S 725 mmHg 77%
    10:00 +1°C° 0 mm 1 m/S 725 mmHg 73%
    11:00 +2°C° 0 mm 1 m/S 725 mmHg 71%
    12:00 +3°C° 0 mm 1 m/S 724 mmHg 68%
    13:00 +4°C° 0 mm 1 m/S 724 mmHg 65%
    14:00 +4°C° 0 mm 1 m/S 723 mmHg 69%
    15:00 +3°C° 0 mm 1 m/S 723 mmHg 74%
    16:00 +2°C° 0 mm 1 m/S 722 mmHg 78%
    17:00 +1°C° 0 mm 1 m/S 722 mmHg 78%
    18:00 0°C° 0 mm 1 m/S 722 mmHg 78%
    19:00 -1°C° 0 mm 1 m/S 722 mmHg 78%
    20:00 -1°C° 0 mm 1 m/S 722 mmHg 75%
    21:00 -1°C° 0 mm 1 m/S 722 mmHg 71%
    22:00 -1°C° 0 mm 1 m/S 722 mmHg 68%
    23:00 -1°C° 0 mm 1 m/S 721 mmHg 66%

    28 November, Dienstag

    Zeit Temperatur Niederschläge Wind Luftdruck Luftfeuchtigkeit
    00:00 -1°C° 0 mm 1 m/S 721 mmHg 65%
    01:00 -1°C° 0 mm 1 m/S 720 mmHg 63%
    02:00 -1°C° 0 mm 1 m/S 720 mmHg 62%
    03:00 -1°C° 0 mm 1 m/S 719 mmHg 62%
    04:00 -1°C° 0 mm 1 m/S 719 mmHg 61%
    05:00 0°C° 0 mm 1 m/S 718 mmHg 61%
    06:00 0°C° 0 mm 1 m/S 718 mmHg 60%
    07:00 -2°C° 0 mm 2 m/S 717 mmHg 60%
    08:00 -1°C° 0 mm 2 m/S 716 mmHg 60%
    09:00 +2°C° 0 mm 2 m/S 716 mmHg 61%
    10:00 +3°C° 0 mm 2 m/S 715 mmHg 61%
    11:00 +4°C° 0 mm 2 m/S 714 mmHg 61%
    12:00 +5°C° 0 mm 2 m/S 714 mmHg 60%
    13:00 +6°C° 0 mm 2 m/S 713 mmHg 60%
    14:00 +5°C° 0 mm 2 m/S 712 mmHg 64%
    15:00 +4°C° 0 mm 2 m/S 712 mmHg 68%
    16:00 +5°C° 0 mm 1 m/S 711 mmHg 72%
    17:00 +3°C° 0 mm 2 m/S 711 mmHg 72%
    18:00 +2°C° 0 mm 2 m/S 711 mmHg 72%
    19:00 +1°C° 0 mm 2 m/S 711 mmHg 72%
    20:00 +1°C° 0 mm 2 m/S 710 mmHg 72%
    21:00 +1°C° 0 mm 2 m/S 710 mmHg 73%
    22:00 +1°C° 0 mm 2 m/S 710 mmHg 73%
    23:00 +1°C° 0 mm 2 m/S 710 mmHg 76%

    29 November, Mittwoch

    Zeit Temperatur Niederschläge Wind Luftdruck Luftfeuchtigkeit
    00:00 +1°C° 0 mm 2 m/S 710 mmHg 78%
    01:00 +1°C° 0 mm 2 m/S 709 mmHg 80%
    02:00 +1°C° 0,1 mm 2 m/S 709 mmHg 81%
    03:00 +1°C° 0,1 mm 2 m/S 709 mmHg 83%
    04:00 +1°C° 0,1 mm 2 m/S 708 mmHg 84%
    05:00 +1°C° 0,2 mm 2 m/S 708 mmHg 85%
    06:00 +1°C° 0,2 mm 2 m/S 708 mmHg 86%
    07:00 +1°C° 0,2 mm 2 m/S 708 mmHg 87%
    08:00 +3°C° 0,3 mm 1 m/S 708 mmHg 87%
    09:00 +3°C° 0,3 mm 1 m/S 708 mmHg 86%
    10:00 +4°C° 0,3 mm 1 m/S 708 mmHg 86%
    11:00 +4°C° 0,5 mm 1 m/S 708 mmHg 87%
    12:00 +4°C° 0,5 mm 1 m/S 707 mmHg 89%
    13:00 +3°C° 0,5 mm 2 m/S 707 mmHg 90%
    14:00 +4°C° 0,5 mm 1 m/S 707 mmHg 91%
    15:00 +3°C° 0,5 mm 1 m/S 707 mmHg 92%
    16:00 +3°C° 0,5 mm 1 m/S 707 mmHg 93%
    17:00 +2°C° 0,3 mm 1 m/S 707 mmHg 93%
    18:00 +1°C° 0,3 mm 1 m/S 707 mmHg 94%
    19:00 +1°C° 0,3 mm 1 m/S 707 mmHg 94%
    20:00 0°C° 0,1 mm 1 m/S 708 mmHg 93%
    21:00 0°C° 0,1 mm 1 m/S 708 mmHg 92%
    22:00 -1°C° 0,1 mm 1 m/S 708 mmHg 91%
    23:00 -1°C° 0 mm 1 m/S 708 mmHg 90%
    Mehr zeigen